DECAYED

STARLINK-5033, 55412 (Decayed)

Orbit data source: Space-Track

STARLINK-5033, 55412 was a payload satellite owned by SpaceX/Seattle (US) in LEO that was launched on Tue, 31 Jan 2023 UTC via an FALCON 9 launch vehicle from the Air Force Western Test Range (AFWTR). Payload-class satellites include a variety of spacecraft equipped with specific instruments for various scientific and technological missions. These include communications satellites like Starlink; space stations such as the ISS; scientific satellites like the Hubble; Earth observation satellites from companies like Planet Labs, Umbra, and HawkEye 360; GPS; miniature CubeSats for education and research; and military/defense satellites.

Not visible in the next 10 days
Identifier
55412, 2023-014X
Orbit
Decayed
Country
Flag of USUS
Related business
Manufacturer
SpaceX/Seattle
Mission
Decayed Commercial Communications
Bus & Motor
STARLINK, Unknown motor
Mass
305 kg wet, ~290 kg dry
Launch date (UTC)
2023-01-31 (3 years ago)
Launch vehicle
FALCON 9
Launch site
Air Force Western Test Range (AFWTR)
Object type
Payload
Rocket body
Debris
Shape & HBR
Box + 1 Pan, 10.1 m
Radar Cross Section
13.562 m², Large (>1 m²)

Expand to show TLE details & history
Last TLE update: 1 year ago

TLE from 1 year ago
0 STARLINK-5033
1 55412U 23014X   25081.49534293  .19359212  46357-5  27485-3 0  9993
2 55412  69.9824 236.6307 0004666 220.2166 203.3918 16.48868180118258
Epoch: 2025-03-22T11:53Z
TLE epoch observation values (Epoch: 2025-03-22T11:53:17.629Z)
Latitude
57.42358°
Longitude
-87.39812°
Altitude
154.165 km
Speed
7.818 km/s
True Right ascension
18h 04m 39s
True Declination
57° 15' 10"
Sunlit
Object was in daylight at epoch
Visualization orbit readout
Latitude
Unknown
Longitude
Unknown
Altitude
Unknown
Speed
Unknown
Apparent Right ascension
Unknown
Apparent Declination
Unknown
Sunlit
N/A
Visualization observer readout
Local Sidereal Time
21:25:53
Azimuth
Unknown
Elevation
Unknown
Doppler factor
Unknown
Orbital elements
Apogee altitude
143.174 km
Perigee altitude
137.091 km
Semi-major axis
6,518.269 km
Eccentricity
0.00047
Inclination
69.9824°
RAAN
236.6307°
Arg. of periapsis
220.2166°
True anomaly
203.37058°
Mean anomaly
203.3918°
Eccentric anomaly
203.38119°
Mean motion
4.12425 °/min
Orbital period
87.29 mins
BSTAR
0.00027485
Loading maneuver chart data...
Computing Atmospheric mass density...

Documentation

Showing up to 5 results
|